FENGYUN 1C DEB

Satellite information

Favourite Embed

Satellite Type and Status

DEBRISIN ORBIT

Key statistics

Satellite FENGYUN 1C DEB at a glance.

Uptime

9715

Days in orbit

Revolutions

≈ 14.2

Per day

Orbit

SSO

Sun Synchronous Orbit

Inclination

98.8

Latest

Satellite identification and parameters

Extended collection of information and parameters for FENGYUN 1C DEB.

Object identification

Identified? True

Debris? True

Object name: FENGYUN 1C DEB

International designator: 1999-025ADE

Object number (NORAD): 30391

Object ID (CCSDS): 30391

Country: PEOPLES REPUBLIC OF CHINA (PRC)

Current information (Y/N): Y

RCS size: SMALL

Orbital parameters

Period: 101.679 minutes

Inclination: 98.7807 deg

SMA: 7216.31 km

Apoapsis: 889.657 km

Periapsis: 786.694 km

RAAN: 30.1181 deg

Eccentricy: 0.00713405

Argument of periapsis: 269.7069 deg

Mean anomaly: 119.4811 deg

Mean motion: 14.16217466 rev/day

Mean motion (dot): 0.00003165 rev/day2

B* drag term: 0.0015804062 1/REarth

Two-line elements (TLE)

Creation date: Dec. 10, 2025, 10:40 a.m.

Reference frame: TEME

Reference center: EARTH

Epoch: Dec. 10, 2025, 1:51 a.m. UTC

TLE line 0: 0 FENGYUN 1C DEB

TLE line 1: 1 30391U 99025ADE 25344.07754655 .00003165 00000-0 15804-2 0 9993

TLE line 2: 2 30391 98.7807 30.1181 0071341 269.7069 119.4811 14.16217466968417

Live tracking on map

Real-time ground track for satellite FENGYUN 1C DEB.

In-orbit conjunctions

A list of the most updated potential collisions computed for object FENGYUN 1C DEB.

Target Orbit TCA Probability of collision Miss distance Type
NOAA 10 SSO 2025-04-06 04:13:01 0.0001011669 952.0 (m) PAYLOAD
FENGYUN 1C DEB SSO 2024-11-15 17:31:01 0.0001866335 348.0 (m) DEBRIS

Associated space launch

Chinese polar orbiting meteorological satellite

FENGYUN 1C DEB was lifted into orbit during the mission ‘Long March 4B | Feng Yun 1C’, on board a Long March 4B space rocket.

The launch took place on May 10, 1999, 1:33 a.m. from Launch Complex 7.

For more information about the launch, click the button.

Launch to space Long March 4B | Feng Yun 1C
Long March 4B | Feng Yun 1C

Agency: N/A

Status: Launch Successful

Launch date: May 10, 1999, 1:33 a.m. UTC

Rocket: Long March 4B

Launch pad: Launch Complex 7

Location: Taiyuan Satellite Launch Center, People's Republic of China

...

Latest news about this satellite

There are no fresh news available about this satellite. Check back as we update our databases every day.


Newsletter sign-up

Weekly statistics, charts and insights to help you stay on top of the space industry.